Wind_Speed
13 14 14 14 13 11 10 10 9 9 9 9 8 7 6 6 5 4 4 3 2 1 1 2 2 3 3 4 4 4 5 5 6 6 6 6 5 5 4 4 4 4 4
15 16 16 16 15 13 12 11 10 10 10 9 9 8 7 6 5 5 4 4 3 3 3 3 3 3 3 4 4 4 5 5 5 6 6 5 5 5 4 4 4 4 5
16 17 17 17 16 15 13 12 11 11 11 10 9 9 8 7 6 6 6 5 4 4 4 4 4 4 4 4 4 4 4 4 5 5 5 5 5 5 4 4 5 5 5
16 17 18 17 17 16 14 14 13 13 12 12 11 10 9 8 8 7 7 6 6 5 5 5 4 4 4 3 3 3 4 4 4 4 4 5 5 5 5 5 5 5 6
16 18 19 18 17 16 15 15 15 14 14 13 12 11 10 9 9 9 8 7 7 6 6 6 5 5 4 3 3 3 3 4 4 4 4 5 5 5 5 5 6 6 6
17 19 21 20 19 18 17 16 16 16 15 14 13 12 11 11 10 10 9 9 8 8 7 7 6 5 5 4 4 3 3 4 4 5 5 5 5 6 6 6 6 6 7
17 19 20 20 19 19 18 18 17 17 16 15 15 14 13 12 12 11 11 10 10 9 8 8 7 6 6 5 4 4 3 4 4 5 5 5 6 6 6 7 7 7 7
18 18 19 20 20 20 20 19 18 18 17 16 16 15 14 14 13 13 12 12 11 10 10 9 8 7 6 6 5 4 4 4 5 5 6 6 6 6 6 7 7 7 7
18 18 19 21 21 21 21 21 20 19 18 18 17 16 16 15 14 14 13 13 12 12 11 10 10 9 8 7 6 6 5 5 6 6 7 7 7 7 7 7 7 7 7
18 19 20 21 22 22 23 22 21 20 20 19 18 17 17 16 16 15 14 14 13 13 12 11 11 10 9 9 8 7 7 7 7 7 8 8 9 9 9 9 9 8 8
19 19 19 22 23 23 23 24 23 22 21 20 19 18 18 17 17 16 16 15 14 14 14 13 12 11 11 10 9 9 9 9 9 9 9 9 10 10 10 10 10 10 10
20 20 21 22 23 23 24 25 24 22 21 20 20 19 19 19 18 17 17 16 16 15 15 14 13 13 12 12 11 11 11 11 11 11 11 11 11 12 12 12 12 12 12
22 21 21 22 23 24 25 25 25 23 22 22 21 21 20 20 19 19 18 18 17 17 16 15 15 14 14 13 13 13 13 13 13 13 13 13 13 14 14 14 14 14 14
22 23 23 24 25 25 25 25 25 24 23 23 22 21 21 21 20 20 19 19 18 18 18 17 16 16 15 15 15 15 15 15 15 15 15 15 15 15 16 16 16 16 16
23 25 26 26 26 26 25 26 25 24 24 23 23 22 22 22 21 21 21 20 20 20 19 19 18 18 17 17 17 17 17 17 17 16 17 17 17 17 17 17 17 18 18
24 26 26 28 27 28 27 27 26 25 24 23 22 23 23 23 22 22 22 22 22 21 21 20 20 20 20 19 19 19 19 19 19 19 19 19 18 18 18 18 19 19 20
25 25 25 26 28 29 28 28 27 26 26 24 24 24 25 24 24 24 24 24 24 23 22 22 21 21 21 21 20 21 21 21 21 21 21 21 20 20 20 20 21 21 22
25 25 26 26 27 29 29 28 28 27 26 25 25 25 26 25 26 26 26 26 25 25 24 24 24 23 23 23 23 23 23 23 23 23 23 23 23 23 23 23 23 23 24
26 26 27 27 28 28 29 29 28 27 26 26 26 27 27 26 27 27 27 27 27 26 26 26 25 25 25 25 25 25 25 25 26 26 26 26 26 26 26 26 25 25 26
29 28 28 27 27 26 26 27 27 27 26 27 27 28 28 27 28 29 28 28 28 27 26 26 27 27 27 28 28 28 28 28 28 28 28 28 29 29 29 28 28 28 28
31 28 27 28 25 24 24 25 25 27 27 27 27 28 29 29 29 30 29 30 30 29 29 29 29 29 30 30 30 30 29 29 29 30 30 31 31 31 31 31 32 31 32
32 29 27 26 24 23 23 23 24 24 25 27 28 29 30 31 32 32 32 32 31 31 31 31 31 31 32 31 31 30 30 30 30 31 32 33 33 34 34 33 34 34 35
34 31 29 27 25 24 24 23 24 24 25 26 26 28 31 33 33 34 33 33 33 33 32 32 33 33 32 33 32 31 31 32 32 32 33 33 34 34 35 35 36 37 38
34 33 30 28 27 26 25 25 26 25 25 26 28 28 29 31 32 34 34 33 33 33 33 34 34 33 32 33 32 32 32 32 33 33 33 33 35 36 37 37 38 39 40
34 33 31 31 30 28 28 28 28 27 27 27 28 28 29 30 32 33 34 35 35 35 36 37 36 35 34 34 34 33 34 34 35 35 35 35 36 37 38 38 39 41 42
34 33 33 32 32 31 30 29 28 29 28 27 27 26 27 30 32 34 34 35 36 36 36 37 36 36 35 34 34 33 32 33 33 34 34 34 35 37 38 39 41 43 45
Wind_Direction
215 203 195 191 188 187 195 203 204 203 202 197 190 182 177 173 170 170 167 168 177 200 253 278 282 285 288 289 293 296 296 298 301 303 305 305 304 303 302 301 300 299 296
219 210 202 195 193 192 199 209 214 215 211 206 200 194 191 190 190 193 195 197 204 217 238 258 265 270 272 277 282 286 287 291 295 297 299 300 297 295 291 289 292 293 291
219 213 209 201 196 196 202 212 218 220 217 213 207 204 202 203 205 208 210 212 214 220 232 245 251 252 253 261 272 277 283 290 293 294 296 294 291 290 286 284 285 285 282
222 216 211 206 201 200 204 210 217 220 220 218 213 210 209 210 213 215 218 220 222 225 228 231 235 238 244 253 263 271 281 289 291 293 295 295 294 288 285 283 281 279 276
226 218 214 211 207 207 209 211 216 219 220 219 216 213 214 215 217 219 219 221 223 224 224 223 224 230 236 243 253 263 276 285 290 294 298 302 299 289 283 279 278 277 273
232 223 218 217 214 214 216 217 219 221 220 219 218 215 216 219 220 221 219 219 220 220 219 219 220 224 229 236 246 258 273 285 293 301 304 305 301 291 284 279 276 275 273
236 231 221 221 222 223 223 223 223 223 222 220 219 217 218 220 221 220 220 219 218 217 217 218 219 221 226 232 242 254 267 285 297 304 307 307 303 293 284 278 274 274 273
249 242 235 229 229 231 230 229 228 226 225 224 221 220 220 221 220 220 219 217 216 214 215 216 217 221 225 231 238 244 259 278 290 298 303 306 304 296 287 280 275 275 274
253 247 240 235 235 236 234 232 231 230 228 226 224 222 222 221 220 220 219 216 215 214 215 216 218 223 226 232 238 244 254 269 281 289 295 299 301 297 289 283 278 276 277
251 245 241 237 237 238 236 235 234 232 230 228 226 225 224 222 220 219 217 216 215 216 217 217 221 226 230 236 241 246 253 264 275 283 288 292 292 293 288 282 279 276 276
250 246 247 242 237 239 238 237 236 233 231 229 226 226 225 224 222 219 217 217 217 217 218 220 223 229 234 238 243 248 255 264 271 277 283 288 288 290 288 282 279 277 277
251 247 249 245 238 238 239 237 235 232 231 230 227 227 226 226 225 221 219 218 219 219 221 224 227 232 237 240 244 249 257 264 269 274 279 284 287 288 287 283 282 279 278
249 248 247 243 241 238 237 235 233 230 229 230 229 228 227 227 227 225 223 222 222 222 225 228 231 235 239 242 247 252 258 264 270 275 279 282 286 287 284 282 280 277 277
247 245 244 242 242 239 236 234 231 230 230 229 230 229 227 227 228 227 226 226 225 225 227 231 234 238 241 244 249 254 260 266 270 275 278 280 283 286 283 280 278 276 276
246 244 241 238 238 235 234 233 230 230 230 230 230 229 229 229 230 230 230 230 229 228 230 233 237 240 243 246 249 254 260 265 268 270 274 278 281 281 281 279 278 276 276
243 240 236 232 234 233 232 233 229 230 231 230 232 230 230 229 230 231 232 232 232 232 234 237 239 241 244 246 249 253 258 265 268 269 272 277 280 281 280 277 276 276 277
241 236 234 232 227 228 229 229 231 232 231 230 231 230 231 231 231 233 234 234 236 236 238 240 242 244 245 248 251 254 258 263 268 270 272 276 278 279 279 277 276 275 277
238 237 235 232 228 228 230 230 230 230 232 232 231 232 233 233 233 235 236 236 238 240 241 243 245 246 249 250 252 256 261 264 267 271 273 274 275 276 276 276 276 277 277
234 235 234 231 228 229 231 230 230 231 234 234 234 235 236 236 237 237 238 239 242 242 243 245 246 248 250 252 254 258 262 264 267 271 273 274 275 275 275 275 276 277 276
232 233 231 230 229 233 234 233 232 232 234 237 237 238 239 240 240 239 240 242 244 244 245 248 249 251 252 254 257 260 263 266 268 269 272 274 274 274 275 274 274 275 275
229 232 231 230 233 236 239 240 242 239 235 237 240 240 242 243 244 243 242 244 246 246 248 251 252 254 256 257 260 261 264 267 269 271 272 275 274 273 273 274 274 274 275
226 230 235 237 239 240 243 248 247 247 241 241 243 244 243 242 243 243 243 245 247 248 250 253 255 256 258 260 261 262 263 267 270 272 273 274 274 273 272 273 273 275 276
228 230 233 237 242 245 246 249 252 252 248 249 249 248 247 246 245 245 245 247 249 250 252 254 257 258 260 261 262 263 264 267 270 272 273 274 274 274 274 274 274 274 275
230 230 233 239 243 247 251 254 256 257 256 257 252 252 252 249 246 245 246 246 248 250 252 255 257 260 261 261 262 265 268 269 270 273 273 274 274 274 275 274 273 273 274
231 233 233 239 244 248 251 253 256 261 264 263 258 256 252 247 246 247 246 246 249 252 255 256 258 259 262 262 264 266 268 269 272 273 271 273 274 274 273 273 273 274 275
232 234 236 240 245 248 251 253 257 261 265 268 265 263 257 252 249 249 247 248 250 253 255 257 260 260 261 262 263 264 266 269 272 273 274 273 273 273 273 274 275 275 276
Height
5896 5896 5895 5896 5897 5898 5899 5901 5902 5902 5902 5902 5902 5903 5903 5903 5904 5905 5905 5905 5906 5906 5907 5907 5907 5907 5908 5908 5908 5907 5907 5907 5906 5906 5905 5905 5904 5904 5904 5904 5903 5903 5903
5894 5894 5894 5894 5894 5895 5897 5899 5900 5900 5901 5901 5901 5901 5901 5902 5902 5903 5904 5904 5904 5905 5905 5906 5906 5906 5907 5907 5907 5906 5906 5906 5905 5905 5904 5904 5904 5903 5903 5903 5903 5902 5902
5891 5891 5892 5892 5892 5893 5894 5896 5897 5898 5899 5899 5899 5899 5900 5900 5901 5902 5902 5903 5903 5904 5904 5904 5905 5905 5905 5906 5906 5905 5905 5905 5904 5904 5904 5903 5903 5902 5902 5902 5902 5901 5901
5888 5889 5890 5890 5891 5891 5892 5893 5895 5896 5897 5897 5897 5898 5898 5899 5899 5900 5901 5901 5902 5902 5903 5903 5904 5904 5904 5904 5904 5904 5904 5904 5903 5903 5903 5902 5902 5901 5901 5901 5900 5900 5900
5886 5886 5887 5888 5889 5890 5890 5891 5892 5894 5894 5895 5895 5896 5896 5897 5898 5898 5899 5900 5900 5901 5901 5902 5902 5903 5903 5903 5903 5903 5903 5903 5902 5902 5902 5901 5901 5900 5900 5900 5899 5899 5899
5883 5884 5884 5886 5886 5887 5888 5889 5890 5891 5892 5892 5893 5893 5894 5895 5896 5897 5897 5898 5899 5899 5900 5900 5901 5901 5902 5902 5902 5902 5902 5902 5901 5901 5900 5900 5900 5899 5899 5898 5898 5898 5897
5880 5881 5882 5883 5884 5885 5886 5886 5887 5888 5890 5890 5891 5891 5892 5893 5894 5895 5896 5897 5897 5898 5898 5899 5899 5900 5900 5901 5901 5901 5901 5901 5900 5900 5899 5899 5899 5898 5898 5897 5897 5896 5896
5878 5878 5879 5880 5881 5882 5883 5884 5885 5886 5887 5888 5888 5889 5890 5891 5892 5893 5894 5895 5896 5896 5897 5897 5898 5899 5899 5899 5899 5900 5900 5900 5899 5899 5898 5898 5897 5897 5896 5896 5896 5895 5895
5874 5875 5876 5877 5878 5879 5880 5881 5882 5883 5884 5885 5886 5887 5888 5889 5890 5891 5892 5893 5894 5894 5895 5896 5896 5897 5898 5898 5898 5898 5898 5898 5898 5898 5897 5897 5896 5896 5895 5895 5894 5894 5894
5870 5871 5872 5873 5875 5876 5877 5878 5879 5880 5881 5882 5883 5884 5885 5886 5887 5888 5890 5891 5892 5892 5893 5894 5895 5895 5896 5896 5897 5897 5897 5897 5897 5896 5896 5895 5895 5894 5894 5893 5893 5892 5892
5867 5867 5868 5869 5871 5872 5873 5874 5875 5877 5878 5879 5880 5881 5882 5883 5885 5886 5887 5888 5890 5890 5891 5892 5893 5893 5894 5895 5895 5895 5895 5895 5895 5895 5894 5894 5893 5892 5892 5891 5891 5890 5890
5862 5863 5864 5865 5866 5868 5869 5870 5872 5873 5874 5876 5877 5878 5879 5881 5882 5883 5884 5885 5887 5888 5889 5890 5890 5891 5892 5892 5893 5893 5893 5893 5893 5892 5892 5892 5891 5890 5889 5889 5888 5888 5887
5857 5858 5859 5860 5862 5863 5865 5867 5868 5869 5871 5872 5873 5875 5876 5877 5879 5880 5881 5883 5884 5885 5886 5887 5888 5889 5889 5890 5890 5890 5891 5891 5890 5890 5890 5889 5888 5888 5887 5886 5885 5885 5885
5853 5853 5854 5856 5858 5859 5860 5862 5864 5865 5867 5868 5870 5871 5872 5874 5875 5877 5878 5880 5881 5883 5884 5885 5885 5886 5886 5887 5887 5887 5888 5888 5887 5887 5887 5886 5885 5884 5883 5882 5882 5881 5881
5848 5848 5849 5851 5852 5854 5856 5857 5859 5861 5862 5864 5865 5867 5869 5870 5872 5874 5875 5877 5878 5879 5880 5881 5882 5883 5883 5884 5884 5884 5884 5884 5884 5884 5883 5883 5882 5881 5880 5879 5878 5878 5877
5842 5843 5844 5845 5847 5849 5852 5852 5853 5856 5859 5860 5861 5863 5865 5866 5868 5870 5871 5873 5874 5876 5877 5878 5879 5879 5880 5880 5880 5881 5881 5881 5880 5880 5879 5879 5878 5877 5876 5875 5875 5874 5873
5837 5837 5838 5839 5841 5844 5846 5848 5849 5851 5854 5855 5857 5859 5861 5862 5864 5866 5867 5869 5870 5872 5873 5874 5875 5876 5876 5876 5877 5877 5877 5876 5876 5876 5875 5874 5874 5873 5872 5871 5870 5870 5869
5832 5833 5833 5834 5837 5839 5842 5843 5844 5846 5849 5851 5853 5854 5856 5858 5860 5861 5863 5865 5866 5867 5869 5870 5871 5871 5872 5872 5873 5873 5873 5872 5872 5871 5871 5870 5869 5868 5868 5867 5866 5865 5864
5827 5828 5829 5830 5833 5834 5836 5838 5839 5841 5844 5846 5847 5849 5850 5853 5855 5857 5859 5860 5861 5863 5864 5865 5866 5867 5867 5868 5868 5868 5868 5867 5867 5866 5866 5865 5864 5863 5862 5862 5861 5860 5859
5821 5823 5824 5825 5827 5829 5831 5833 5835 5837 5839 5841 5843 5845 5846 5848 5850 5852 5854 5855 5856 5858 5859 5860 5861 5862 5862 5863 5863 5863 5863 5862 5861 5861 5860 5859 5858 5858 5857 5856 5855 5854 5853
5816 5818 5819 5821 5823 5825 5827 5828 5830 5832 5834 5837 5839 5841 5842 5844 5845 5847 5848 5850 5851 5853 5854 5855 5856 5856 5857 5857 5857 5857 5857 5856 5856 5855 5854 5853 5852 5851 5850 5849 5848 5847 5846
5810 5813 5815 5816 5818 5821 5823 5824 5826 5827 5829 5832 5833 5834 5836 5838 5839 5841 5842 5844 5845 5846 5848 5849 5849 5850 5850 5851 5851 5851 5851 5851 5850 5849 5847 5846 5845 5844 5843 5842 5841 5839 5838
5804 5807 5810 5812 5814 5816 5818 5820 5821 5822 5823 5824 5826 5828 5829 5830 5832 5834 5835 5837 5838 5840 5841 5842 5843 5843 5844 5844 5844 5845 5844 5844 5843 5842 5840 5839 5837 5837 5836 5835 5833 5832 5830
5799 5801 5804 5808 5810 5812 5813 5815 5816 5815 5816 5817 5819 5820 5822 5823 5825 5826 5828 5829 5831 5832 5834 5835 5836 5836 5836 5837 5837 5837 5837 5836 5835 5835 5834 5831 5830 5829 5828 5826 5825 5823 5821
5793 5795 5799 5802 5804 5807 5808 5810 5810 5810 5810 5811 5813 5813 5814 5815 5817 5819 5820 5822 5823 5825 5826 5827 5828 5828 5829 5829 5829 5829 5829 5828 5827 5826 5826 5824 5822 5821 5819 5818 5816 5814 5812
5787 5790 5793 5796 5799 5801 5803 5804 5805 5805 5804 5805 5805 5806 5807 5808 5810 5811 5812 5814 5816 5817 5818 5819 5820 5820 5820 5821 5821 5821 5820 5820 5819 5818 5816 5815 5814 5812 5810 5808 5806 5804 5802